Location: Mason Neck State Park
(38.6428°N, 77.1981°W)
Time: 07:48:57
(UTC-04:00)

Cosmos 2278 Rocket - Visible Passes

Search period start: 01 August 2015 00:00
Search period end: 11 August 2015 00:00
Orbit: 842 x 845 km, 71.0° (Epoch: 31 July)

Date Brightness Start Highest point End Pass type
(mag) Time Alt. Az. Time Alt. Az. Time Alt. Az.
01 Aug 2.9 00:18:50 49° NNE 00:18:50 49° NNE 00:22:55 10° NNE visible
01 Aug 4.4 02:00:39 14° WNW 02:02:09 15° NW 02:05:13 10° NNW visible
02 Aug 2.8 00:04:17 49° NE 00:04:17 49° NE 00:08:25 10° NNE visible
02 Aug 4.4 01:46:06 14° WNW 01:47:37 16° NW 01:50:50 10° NNW visible
02 Aug 2.7 23:49:41 51° NE 23:49:41 51° NE 23:53:54 10° NNE visible
03 Aug 4.4 01:31:30 15° WNW 01:33:04 16° NW 01:36:26 10° NNW visible
03 Aug 2.6 23:35:01 53° NE 23:35:01 53° NE 23:39:23 10° NNE visible
04 Aug 4.4 01:16:49 15° WNW 01:18:31 17° NW 01:22:01 10° NNW visible
04 Aug 2.5 23:20:16 56° NE 23:20:16 56° NE 23:24:52 10° NNE visible
05 Aug 4.4 01:02:03 15° WNW 01:03:58 18° NW 01:07:36 10° N visible
05 Aug 2.3 23:05:24 61° ENE 23:05:24 61° ENE 23:10:21 10° NNE visible
06 Aug 4.4 00:47:11 15° W 00:49:26 18° NW 00:53:11 10° N visible
06 Aug 2.1 22:50:24 63° E 22:50:24 63° E 22:55:50 10° NNE visible
07 Aug 4.4 00:32:12 14° W 00:34:53 19° NW 00:38:45 10° N visible
07 Aug 2.1 22:35:13 58° SE 22:35:43 60° ESE 22:41:19 10° NNE visible
08 Aug 4.4 00:16:59 13° W 00:20:20 20° NW 00:24:19 10° N visible
08 Aug 2.2 22:19:45 44° SSE 22:21:13 58° ESE 22:26:47 10° NNE visible
09 Aug 4.4 00:01:34 10° WSW 00:05:48 21° NW 00:09:53 10° N visible
09 Aug 2.2 22:03:46 27° S 22:06:44 55° ESE 22:12:16 10° NNE visible
09 Aug 4.4 23:46:56 10° WSW 23:51:15 21° NW 23:55:27 10° N visible
10 Aug 2.3 21:46:48 10° S 21:52:14 52° ESE 21:57:44 10° NNE visible
10 Aug 4.4 23:32:18 10° WSW 23:36:43 22° NW 23:41:00 10° N visible
